sat.trackr.live / text

‹ back to catalog

ONEWEB-0611

NORAD 54674 · 2022-166AJ

PAYLOAD ACTIVE UNKNOWN

§ Identity

Operator
Country
UK
Launch date
2022-12-08
Launch site
AFETR
Launch vehicle
Mass (kg)
RCS (m²)

Purposes: comms

External: N2YO · Heavens-Above · Gunter

§ Orbital elements

Epoch: 2026-09-18T08:44:05.728416Z

Period
108.94 min
Inclination
87.9275°
Eccentricity
0.0001830
Mean motion
13.21827286 rev/d
Perigee alt
1,176.4 km
Apogee alt
1,179.1 km
Semi-major
7,555.9 km
B*
-2.2766e-4
RAAN
225.4300°
Arg perigee
79.4250°
Mean anomaly
280.7090°
Rev number
18,375

§ Raw data

ONEWEB-06111 54674U 22166AJ  26261.36395519 -.00000081  00000+0 -22766-3 0  99972 54674  87.9275 225.4300 0001830  79.4250 280.7090 13.21827286183751

JSON: /api/v1/satellites/54674 · /tle

For live sub-satellite position, see the globe view (requires WebGL).

§ Visibility from observer

Set your observer location to see the next 7 days of passes ≥ 10°. The values pass through the URL so the page stays shareable.

No JS? Fill the form by hand. The geolocation button needs JavaScript.